Location: Edinburgh
(55.9500°N, 3.1600°W)
Time: 08:10:38
(UTC+01:00)

Envisat - Pass Details

Date: 19 February 2019
Orbit: 764 x 766 km, 98.1° (Epoch: 18 October)

Event Time Altitude Azimuth Distance (km) Brightness Sun altitude
Rises 19:30:50 0° 191° (S) 3,222 6.3 -18.2°
Reaches altitude 10° 19:33:20 10° 200° (SSW) 2,301 5.6 -18.6°
Maximum altitude 19:37:56 34° 265° (W) 1,241 4.7 -19.2°
Drops below altitude 10° 19:42:35 10° 331° (NNW) 2,315 6.0 -19.8°
Sets 19:45:06 0° 340° (NNW) 3,246 6.7 -20.2°
